Winder, GA

1:34 PM EDT on March 27, 2017 (GMT -0400)
Winder-Barrow

Weather History for KWDR - March, 2013

Change the Weather History Date:

Friday, March 22, 2013

  Actual Average Record
Temperature  
Mean Temperature 43 °F -  
Max Temperature 51 °F 66 °F 82 °F (1991)
Min Temperature 35 °F 40 °F 21 °F (1965)
Degree Days  
Heating Degree Days 22    
Moisture  
Dew Point 24 °F    
Average Humidity 45    
Maximum Humidity 62    
Minimum Humidity 32    
Precipitation  
Precipitation 0.00 in - - ()
Sea Level Pressure  
Sea Level Pressure 30.05 in    
Wind  
Wind Speed 2 mph (NNW)    
Max Wind Speed 7 mph    
Max Gust Speed -    
Visibility 10 miles    
Events      
Averages and records for this station are not official NWS values.
T = Trace of Precipitation, MM = Missing Value Source: NWS Daily Summary

Daily Weather History Graph

Daily Weather History Graph

Search for Another Location

Airport or City:

Trip Planner

Search our weather history database for the weather conditions in past years. The results will help you decide how hot, cold, wet, or windy it might be!

Date:

Astronomy

Mar. 22, 2013 Rise Set
Actual Time 7:35 AM EDT 7:48 PM EDT
Civil Twilight 7:10 AM EDT 8:13 PM EDT
Nautical Twilight 6:41 AM EDT 8:42 PM EDT
Astronomical Twilight 6:11 AM EDT 9:11 PM EDT
Moon 3:25 PM EDT (3/22) 4:23 AM EDT (3/22)
Length of Visible Light 13h 02m
Length of Day
12h 12m
Waxing Gibbous, 77% of the Moon is Illuminated
Mar 22
Waxing Gibbous
Mar 27
Full
Apr 3
Last Quarter
Apr 10
New
Apr 18
First Quarter

Hourly Weather History & Observations

Time (EDT) Temp. Windchill Dew Point Humidity Pressure Visibility Wind Dir Wind Speed Gust Speed Precip Events Conditions
12:15 AM 37.4 °F 33.8 °F 17.6 °F 45% 30.00 in 10.0 mi NNW 4.6 mph - N/A   Clear
12:35 AM 37.4 °F 32.8 °F 17.6 °F 45% 30.00 in 10.0 mi NNW 5.8 mph - N/A   Clear
12:55 AM 37.4 °F 33.8 °F 17.6 °F 45% 29.99 in 10.0 mi NNW 4.6 mph - N/A   Clear
1:15 AM 35.6 °F 31.7 °F 19.4 °F 52% 29.99 in 10.0 mi North 4.6 mph - N/A   Clear
1:35 AM 37.4 °F 32.1 °F 17.6 °F 45% 29.99 in 10.0 mi NNW 6.9 mph - N/A   Clear
1:55 AM 37.4 °F 32.8 °F 17.6 °F 45% 30.00 in 10.0 mi NNW 5.8 mph - N/A   Clear
2:15 AM 37.4 °F 34.9 °F 17.6 °F 45% 30.01 in 10.0 mi NW 3.5 mph - N/A   Clear
2:35 AM 37.4 °F 33.8 °F 19.4 °F 48% 30.02 in 10.0 mi NNW 4.6 mph - N/A   Clear
2:55 AM 37.4 °F 34.9 °F 17.6 °F 45% 30.03 in 10.0 mi NNW 3.5 mph - N/A   Scattered Clouds
3:15 AM 39.2 °F 37.0 °F 17.6 °F 42% 30.03 in 10.0 mi NW 3.5 mph - N/A   Scattered Clouds
3:35 AM 39.2 °F - 17.6 °F 42% 30.03 in 10.0 mi Calm Calm - N/A   Mostly Cloudy
3:55 AM 39.2 °F - 17.6 °F 42% 30.04 in 10.0 mi Calm Calm - N/A   Overcast
4:15 AM 39.2 °F - 17.6 °F 42% 30.03 in 10.0 mi Calm Calm - N/A   Overcast
4:35 AM 39.2 °F - 17.6 °F 42% 30.04 in 10.0 mi Calm Calm - N/A   Overcast
4:55 AM 39.2 °F - 19.4 °F 45% 30.03 in 10.0 mi Calm Calm - N/A   Overcast
5:15 AM 37.4 °F - 23.0 °F 56% 30.03 in 10.0 mi Calm Calm - N/A   Overcast
5:35 AM 37.4 °F - 24.8 °F 60% 30.03 in 10.0 mi Calm Calm - N/A   Overcast
5:55 AM 39.2 °F - 23.0 °F 52% 30.03 in 10.0 mi Calm Calm - N/A   Overcast
6:15 AM 39.2 °F - 23.0 °F 52% 30.05 in 10.0 mi Calm Calm - N/A   Overcast
6:35 AM 39.2 °F - 23.0 °F 52% 30.05 in 10.0 mi Calm Calm - N/A   Overcast
6:55 AM 39.2 °F - 23.0 °F 52% 30.05 in 10.0 mi Calm Calm - N/A   Overcast
7:15 AM 39.2 °F - 21.2 °F 49% 30.06 in 10.0 mi Calm Calm - N/A   Overcast
7:35 AM 39.2 °F - 23.0 °F 52% 30.05 in 10.0 mi Calm Calm - N/A   Overcast
7:55 AM 39.2 °F 37.0 °F 23.0 °F 52% 30.06 in 10.0 mi NNE 3.5 mph - N/A   Mostly Cloudy
8:15 AM 39.2 °F - 21.2 °F 49% 30.05 in 10.0 mi Calm Calm - N/A   Mostly Cloudy
8:35 AM 39.2 °F - 26.6 °F 61% 30.06 in 10.0 mi Calm Calm - N/A   Overcast
8:55 AM 41.0 °F - 23.0 °F 49% 30.05 in 10.0 mi Calm Calm - N/A   Overcast
9:15 AM 41.0 °F 39.0 °F 19.4 °F 42% 30.06 in 10.0 mi ENE 3.5 mph - N/A   Overcast
9:35 AM 41.0 °F - 19.4 °F 42% 30.07 in 10.0 mi Calm Calm - N/A   Overcast
10:15 AM 41.0 °F - 21.2 °F 45% 30.08 in 10.0 mi Calm Calm - N/A   Overcast
10:35 AM 41.0 °F - 21.2 °F 45% 30.08 in 10.0 mi Calm Calm - N/A   Overcast
10:55 AM 42.8 °F - 19.4 °F 39% 30.08 in 10.0 mi Calm Calm - N/A   Overcast
11:15 AM 42.8 °F 40.1 °F 19.4 °F 39% 30.08 in 10.0 mi East 4.6 mph - N/A   Overcast
11:35 AM 42.8 °F - 17.6 °F 36% 30.09 in 10.0 mi Calm Calm - N/A   Overcast
11:55 AM 44.6 °F - 17.6 °F 34% 30.09 in 10.0 mi Calm Calm - N/A   Overcast
12:15 PM 44.6 °F - 19.4 °F 37% 30.10 in 10.0 mi Calm Calm - N/A   Overcast
12:35 PM 44.6 °F - 19.4 °F 37% 30.09 in 10.0 mi Calm Calm - N/A   Overcast
12:55 PM 46.4 °F - 19.4 °F 34% 30.09 in 10.0 mi Calm Calm - N/A   Overcast
1:15 PM 46.4 °F - 19.4 °F 34% 30.09 in 10.0 mi Calm Calm - N/A   Overcast
1:35 PM 46.4 °F - 19.4 °F 34% 30.08 in 10.0 mi Calm Calm - N/A   Mostly Cloudy
1:55 PM 48.2 °F - 19.4 °F 32% 30.07 in 10.0 mi SW 3.5 mph - N/A   Scattered Clouds
2:15 PM 46.4 °F - 21.2 °F 37% 30.07 in 10.0 mi Calm Calm - N/A   Scattered Clouds
2:35 PM 48.2 °F - 21.2 °F 34% 30.07 in 10.0 mi Calm Calm - N/A   Scattered Clouds
2:55 PM 48.2 °F - 21.2 °F 34% 30.06 in 10.0 mi Calm Calm - N/A   Scattered Clouds
3:15 PM 48.2 °F - 23.0 °F 37% 30.07 in 10.0 mi Calm Calm - N/A   Mostly Cloudy
3:35 PM 48.2 °F - 23.0 °F 37% 30.05 in 10.0 mi Calm Calm - N/A   Overcast
3:55 PM 48.2 °F - 23.0 °F 37% 30.04 in 10.0 mi Calm Calm - N/A   Overcast
4:15 PM 48.2 °F - 23.0 °F 37% 30.03 in 10.0 mi Calm Calm - N/A   Mostly Cloudy
4:35 PM 50.0 °F - 24.8 °F 37% 30.04 in 10.0 mi Calm Calm - N/A   Mostly Cloudy
4:55 PM 50.0 °F - 26.6 °F 40% 30.03 in 10.0 mi Calm Calm - N/A   Overcast
5:15 PM 51.8 °F - 26.6 °F 38% 30.02 in 10.0 mi Calm Calm - N/A   Mostly Cloudy
5:35 PM 50.0 °F - 26.6 °F 40% 30.02 in 10.0 mi Calm Calm - N/A   Mostly Cloudy
5:55 PM 50.0 °F - 26.6 °F 40% 30.03 in 10.0 mi Calm Calm - N/A   Overcast
6:15 PM 50.0 °F - 28.4 °F 43% 30.03 in 10.0 mi SSE 3.5 mph - N/A   Overcast
6:35 PM 50.0 °F - 28.4 °F 43% 30.04 in 10.0 mi Calm Calm - N/A   Overcast
6:55 PM 50.0 °F - 28.4 °F 43% 30.04 in 10.0 mi Calm Calm - N/A   Overcast
7:15 PM 50.0 °F - 30.2 °F 47% 30.04 in 10.0 mi Calm Calm - N/A   Overcast
7:35 PM 50.0 °F - 28.4 °F 43% 30.05 in 10.0 mi Calm Calm - N/A   Overcast
7:55 PM 48.2 °F - 30.2 °F 50% 30.05 in 10.0 mi Calm Calm - N/A   Overcast
8:15 PM 48.2 °F - 30.2 °F 50% 30.05 in 10.0 mi Calm Calm - N/A   Overcast
8:35 PM 48.2 °F - 32.0 °F 54% 30.05 in 10.0 mi Calm Calm - N/A   Overcast
8:55 PM 48.2 °F - 32.0 °F 54% 30.05 in 10.0 mi Calm Calm - N/A   Overcast
9:15 PM 48.2 °F - 30.2 °F 50% 30.05 in 10.0 mi Calm Calm - N/A   Overcast
9:35 PM 48.2 °F - 32.0 °F 54% 30.06 in 10.0 mi Calm Calm - N/A   Overcast
9:55 PM 48.2 °F - 32.0 °F 54% 30.05 in 10.0 mi Calm Calm - N/A   Overcast
10:15 PM 48.2 °F - 32.0 °F 54% 30.06 in 10.0 mi Calm Calm - N/A   Overcast
10:35 PM 46.4 °F - 33.8 °F 62% 30.06 in 10.0 mi Calm Calm - N/A   Overcast
10:55 PM 46.4 °F - 33.8 °F 62% 30.06 in 10.0 mi Calm Calm - N/A   Overcast
11:15 PM 48.2 °F - 33.8 °F 58% 30.06 in 10.0 mi Calm Calm - N/A   Overcast
11:35 PM 46.4 °F - 33.8 °F 62% 30.06 in 10.0 mi Calm Calm - N/A   Overcast
11:55 PM 46.4 °F - 33.8 °F 62% 30.06 in 10.0 mi Calm Calm - N/A   Overcast